FW1809 Weather Reports


time (UTC)temp
C
wind
direction
speed
KPH
gust
KPH
rain 1hr
cm
rain 24hr
cm
rain mn
cm
humidity
%
barometer
mb
20260507123002 8 269 4.8 20.9 0.00 0.76 0.51 96 1009.5
20260507121503 8 289 3.2 14.5 0.00 0.76 0.51 97 1009.1
20260507120100 7 306 0.0 12.9 0.03 0.76 0.51 96 1009.4
20260507114604 7 271 0.0 14.5 0.03 0.76 0.51 97 1009.1
20260507113101 7 273 1.6 11.3 0.03 0.76 0.51 96 1009.0
20260507111557 7 279 4.8 19.3 0.03 0.76 0.51 96 1009.1
20260507110156 7 307 3.2 19.3 0.00 0.71 0.48 97 1008.8
20260507104551 7 267 3.2 16.1 0.03 0.71 0.48 96 1008.7
20260507103047 8 260 1.6 9.7 0.08 0.71 0.48 97 1008.6
20260507101549 8 268 0.0 11.3 0.13 0.71 0.48 97 1008.4
20260507100047 8 254 0.0 8.0 0.15 0.71 0.48 97 1007.8
20260507094543 8 255 0.0 6.4 0.13 0.71 0.46 97 1008.1
20260507093049 8 263 3.2 12.9 0.10 0.66 0.41 97 1008.0
20260507091541 8 275 0.0 11.3 0.08 0.61 0.36 97 1007.8
20260507090040 8 273 0.0 11.3 0.08 0.58 0.33 96 1007.8
20260507084540 8 238 1.6 11.3 0.10 0.56 0.30 97 1007.7
20260507083037 8 281 1.6 11.3 0.10 0.56 0.30 96 1007.8
20260507081535 8 263 1.6 17.7 0.13 0.53 0.28 96 1007.5
20260507080039 9 251 1.6 8.0 0.15 0.51 0.25 96 1007.8
20260507074532 9 260 3.2 12.9 0.20 0.46 0.20 96 1008.1
20260507073030 9 234 0.0 4.8 0.20 0.46 0.20 96 1007.8
20260507071557 9 232 3.2 11.3 0.15 0.41 0.15 96 1008.0
20260507070026 9 244 0.0 8.0 0.10 0.36 0.10 96 1008.2
20260507064524 10 274 1.6 11.3 0.00 0.25 0.00 96 1007.8
20260507063022 10 248 1.6 8.0 0.00 0.25 0.00 96 1006.7
20260507061520 10 235 3.2 8.0 0.00 0.25 0.00 97 1007.0
20260507060017 10 253 4.8 11.3 0.00 0.25 0.00 97 1007.2
20260507054514 10 253 1.6 12.9 0.00 0.25 0.00 97 1007.3
20260507053014 10 259 1.6 6.4 0.00 0.25 0.00 97 1007.5
20260507051517 11 255 1.6 9.7 0.00 0.25 0.00 97 1007.6
20260507050012 11 259 4.8 12.9 0.00 0.25 0.00 97 1007.9
20260507044507 11 279 0.0 4.8 0.00 0.25 0.00 97 1007.8
20260507043010 11 279 0.0 6.4 0.03 0.25 0.00 97 1007.8
20260507041504 11 264 0.0 8.0 0.03 0.25 0.00 97 1007.8
20260507040001 11 263 0.0 6.4 0.05 0.25 0.25 97 1007.8
20260507034557 12 286 0.0 16.1 0.05 0.25 0.25 97 1007.8
20260507033054 13 258 3.2 19.3 0.03 0.23 0.23 97 1007.9
20260507031555 13 256 1.6 12.9 0.03 0.23 0.23 98 1007.7
20260507030053 13 217 0.0 6.4 0.00 0.20 0.20 98 1007.5
20260507024601 13 192 1.6 6.4 0.00 0.20 0.20 98 1007.3
20260507023051 13 184 1.6 9.7 0.00 0.20 0.20 98 1007.5
20260507021551 13 172 1.6 11.3 0.00 0.20 0.20 98 1007.6
20260507020050 13 173 1.6 12.9 0.00 0.20 0.20 98 1007.6
20260507014559 13 197 1.6 9.7 0.00 0.20 0.20 98 1007.5
20260507013051 13 227 3.2 11.3 0.00 0.20 0.20 97 1007.5
20260507011548 13 167 4.8 16.1 0.00 0.20 0.20 97 1007.1
20260507010054 13 162 3.2 11.3 0.00 0.20 0.20 97 1007.1
20260507004552 13 161 3.2 9.7 0.00 0.20 0.20 97 1007.2
20260507003046 13 145 3.2 19.3 0.00 0.20 0.20 97 1007.4
20260507001551 13 173 3.2 12.9 0.00 0.20 0.20 97 1007.3
20260507000047 13 191 3.2 9.7 0.00 0.20 0.20 97 1007.3
20260506234545 13 172 1.6 16.1 0.00 0.20 0.20 97 1007.3
20260506233049 13 130 4.8 19.3 0.00 0.20 0.20 97 1007.2
20260506231543 13 163 3.2 14.5 0.00 0.20 0.20 97 1007.1
20260506230043 13 189 3.2 11.3 0.00 0.20 0.20 96 1007.0
20260506224542 13 138 3.2 8.0 0.00 0.20 0.20 96 1006.9
20260506223041 13 150 4.8 14.5 0.03 0.20 0.20 96 1006.9
20260506221540 13 212 3.2 16.1 0.03 0.20 0.20 96 1007.0
20260506220046 13 137 1.6 12.9 0.05 0.20 0.20 96 1006.9
20260506214549 13 151 1.6 12.9 0.05 0.20 0.20 96 1006.9
20260506213036 13 126 4.8 14.5 0.05 0.18 0.18 96 1006.9
20260506211535 13 163 4.8 14.5 0.05 0.18 0.18 95 1007.1
20260506210035 13 175 1.6 14.5 0.03 0.15 0.15 95 1007.2
20260506204532 13 165 0.0 11.3 0.03 0.15 0.15 95 1007.3
20260506203032 13 128 4.8 14.5 0.00 0.13 0.13 95 1007.5
20260506201533 13 191 8.0 17.7 0.00 0.13 0.13 95 1007.3
20260506200030 13 178 3.2 17.7 0.00 0.13 0.13 95 1007.6
20260506194529 13 209 6.4 25.7 0.03 0.13 0.13 95 1007.7
20260506193027 13 124 3.2 17.7 0.08 0.13 0.13 94 1007.8
20260506191526 13 186 9.7 20.9 0.10 0.13 0.13 93 1008.1
20260506190026 13 169 4.8 16.1 0.10 0.13 0.13 93 1008.0
20260506184523 14 141 1.6 16.1 0.10 0.10 0.10 92 1008.3
20260506183022 14 56 1.6 14.5 0.05 0.05 0.05 91 1008.0
20260506181522 15 78 3.2 19.3 0.03 0.03 0.03 89 1008.4
20260506180018 15 150 3.2 12.9 0.03 0.03 0.03 87 1008.8
20260506174517 15 151 3.2 22.5 0.00 0.00 0.00 85 1009.1
20260506173015 16 163 4.8 22.5 0.00 0.00 0.00 83 1009.2
20260506171519 16 133 8.0 22.5 0.00 0.00 0.00 80 1009.3
20260506170012 16 192 11.3 22.5 0.00 0.00 0.00 80 1009.6
20260506164511 17 188 8.0 32.2 0.00 0.00 0.00 79 1009.6
20260506163011 17 97 4.8 29.0 0.00 0.00 0.00 78 1009.6
20260506161511 17 185 9.7 30.6 0.00 0.00 0.00 78 1009.8
20260506160013 17 115 8.0 27.4 0.00 0.00 0.00 77 1010.0
20260506154508 18 107 4.8 22.5 0.00 0.00 0.00 75 1009.9
20260506153010 18 132 3.2 20.9 0.00 0.00 0.00 74 1009.8
20260506151507 18 194 6.4 22.5 0.00 0.00 0.00 73 1009.8
20260506150005 19 221 8.0 19.3 0.00 0.00 0.00 73 1010.0
20260506144507 19 119 8.0 17.7 0.00 0.00 0.00 74 1010.1
20260506143004 18 169 4.8 20.9 0.00 0.00 0.00 74 1010.1
20260506141559 18 161 4.8 22.5 0.00 0.00 0.00 76 1010.3
20260506140057 17 148 4.8 25.7 0.00 0.00 0.00 77 1010.2
20260506134600 17 144 9.7 27.4 0.00 0.00 0.00 77 1010.2
20260506133059 17 142 8.0 17.7 0.00 0.00 0.00 78 1009.9
20260506131551 17 206 8.0 20.9 0.00 0.00 0.00 80 1010.1
20260506130051 17 245 4.8 19.3 0.00 0.00 0.00 81 1010.3
20260506124547 17 69 6.4 19.3 0.00 0.00 0.00 83 1010.7